Lone Rock, WI

6:48 AM CST on December 07, 2016 (GMT -0600)
Tri-County Regional

Weather History for KLNR - April, 2012

Change the Weather History Date:

Friday, April 27, 2012

  Actual Average Record
Temperature  
Mean Temperature 42 °F -  
Max Temperature 55 °F 61 °F 77 °F (2003)
Min Temperature 30 °F 39 °F 28 °F (2004)
Degree Days  
Heating Degree Days 23    
Moisture  
Dew Point 23 °F    
Average Humidity 49    
Maximum Humidity 85    
Minimum Humidity 24    
Precipitation  
Precipitation 0.00 in - - ()
Sea Level Pressure  
Sea Level Pressure 30.19 in    
Wind  
Wind Speed 6 mph (ESE)    
Max Wind Speed 22 mph    
Max Gust Speed 29 mph    
Visibility 10 miles    
Events      
Averages and records for this station are not official NWS values.
T = Trace of Precipitation, MM = Missing Value Source: NWS Daily Summary

Daily Weather History Graph

Daily Weather History Graph

Search for Another Location

Airport or City:

Trip Planner

Search our weather history database for the weather conditions in past years. The results will help you decide how hot, cold, wet, or windy it might be!

Date:

Astronomy

Apr. 27, 2012 Rise Set
Actual Time 5:59 AM CDT 7:58 PM CDT
Civil Twilight 5:28 AM CDT 8:29 PM CDT
Nautical Twilight 4:50 AM CDT 9:06 PM CDT
Astronomical Twilight 4:09 AM CDT 9:48 PM CDT
Moon 10:34 AM CDT (4/27) 12:47 AM CDT (4/27)
Length of Visible Light 15h 00m
Length of Day
13h 59m
Waxing Crescent, 33% of the Moon is Illuminated
Apr 27
Waxing Crescent
Apr 29
First Quarter
May 5
Full
May 12
Last Quarter
May 20
New

Hourly Weather History & Observations

Time (CDT) Temp. Windchill Dew Point Humidity Pressure Visibility Wind Dir Wind Speed Gust Speed Precip Events Conditions
12:56 AM 36.0 °F - 28.9 °F 76% 30.17 in 10.0 mi Calm Calm - N/A   Clear
1:56 AM 33.1 °F - 28.0 °F 82% 30.18 in 10.0 mi Calm Calm - N/A   Clear
2:56 AM 32.0 °F - 28.0 °F 85% 30.21 in 10.0 mi Calm Calm - N/A   Clear
3:56 AM 32.0 °F - 27.0 °F 82% 30.22 in 10.0 mi Calm Calm - N/A   Clear
4:56 AM 30.9 °F - 27.0 °F 85% 30.24 in 10.0 mi Calm Calm - N/A   Clear
5:56 AM 32.0 °F - 28.0 °F 85% 30.26 in 10.0 mi Calm Calm - N/A   Clear
7:56 AM 39.0 °F 35.7 °F 32.0 °F 76% 30.28 in 10.0 mi ESE 4.6 mph - N/A   Clear
8:56 AM 42.1 °F 38.4 °F 30.9 °F 65% 30.27 in 10.0 mi East 5.8 mph - N/A   Clear
9:56 AM 46.0 °F 42.5 °F 27.0 °F 47% 30.26 in 10.0 mi East 6.9 mph - N/A   Clear
10:56 AM 48.9 °F - 19.9 °F 32% 30.25 in 10.0 mi East 12.7 mph - N/A   Clear
11:56 AM 51.1 °F - 19.9 °F 29% 30.24 in 10.0 mi ESE 15.0 mph - N/A   Clear
1:56 PM 54.0 °F - 25.0 °F 33% 30.20 in 10.0 mi SE 8.1 mph - N/A   Overcast
2:56 PM 54.0 °F - 21.9 °F 29% 30.18 in 10.0 mi ESE 10.4 mph - N/A   Overcast
3:56 PM 54.0 °F - 23.0 °F 30% 30.16 in 10.0 mi SE 10.4 mph 18.4 mph N/A   Overcast
4:56 PM 53.1 °F - 24.1 °F 32% 30.15 in 10.0 mi SE 10.4 mph - N/A   Overcast
5:56 PM 53.1 °F - 23.0 °F 31% 30.12 in 10.0 mi East 17.3 mph - N/A   Overcast
6:56 PM 53.1 °F - 23.0 °F 31% 30.09 in 10.0 mi East 20.7 mph 28.8 mph N/A   Overcast
7:56 PM 50.0 °F - 21.0 °F 32% 30.09 in 10.0 mi East 21.9 mph 27.6 mph N/A   Mostly Cloudy
8:56 PM 48.9 °F - 12.9 °F 24% 30.12 in 10.0 mi East 17.3 mph - N/A   Mostly Cloudy
9:56 PM 48.0 °F - 12.0 °F 24% 30.14 in 10.0 mi ESE 16.1 mph - N/A   Mostly Cloudy
10:56 PM 46.9 °F - 14.0 °F 27% 30.13 in 10.0 mi East 16.1 mph 25.3 mph N/A   Overcast
11:56 PM 46.0 °F 39.3 °F 17.1 °F 31% 30.14 in 10.0 mi East 16.1 mph 19.6 mph N/A   Overcast